Regional Weather Roundup
Issued by NWS

Home | Current Version | Previous Version | Graphics & Text | Print | Product List | Glossary On
Versions: 1 2 3 4 5 6 7 8 9 10 11 12 13 14 15 16 17 18 19 20 21 22 23 24 25 26 27 28 29 30 31 32 33 34 35 36 37 38 39 40 41 42 43 44 45 46 47 48 49 50
066
ASUS43 KMKX 142220
RWRWI

WISCONSIN REGIONAL WEATHER ROUNDUP
NATIONAL WEATHER SERVICE MILWAUKEE/SULLIVAN WI
400 PM CST SUN FEB 14 2016

NOTE: "FAIR" INDICATES FEW OR NO CLOUDS BELOW 12,000 FEET WITH NO
SIGNIFICANT WEATHER AND/OR OBSTRUCTIONS TO VISIBILITY.

WIZ001-002-006>008-014>016-023>028-142300-
NORTHWEST WISCONSIN

CITY           SKY/WX    TMP DP  RH WIND       PRES   REMARKS
SUPERIOR ARPT  CLOUDY    18   8  64 S10       29.95F WCI   6
ASHLAND        CLOUDY    21   7  54 S10       29.96F WCI  10
HAYWARD        CLOUDY    17   6  62 S12       29.93F WCI   4
SIREN          CLOUDY    18   8  64 S13       29.94R WCI   5
CUMBERLAND     FLURRIES  16   9  73 SE12      29.93S WCI   3
RICE LAKE      CLOUDY    17   9  70 SE14      29.96F WCI   3
CHETEK         FLURRIES  17   9  71 SE13      29.96F WCI   3
LADYSMITH      CLOUDY    18   9  66 SE9       29.99S WCI   7
EAU CLAIRE     CLOUDY    17   9  70 SE15      29.98S WCI   2
MENOMONIE      FLURRIES  20  10  64 E16       29.97R WCI   6
NEW RICHMOND   FLURRIES  19  10  68 S10       29.94S WCI   7
OSCEOLA        FLURRIES  19  11  71 SE13G18   29.96S WCI   6
$$

WIZ003>005-009-010-017-018-142300-
NORTH CENTRAL WISCONSIN

CITY           SKY/WX    TMP DP  RH WIND       PRES   REMARKS
MANITOWISH WTR CLOUDY    19   1  46 S12       29.94S WCI   6
ARBOR VITAE    CLOUDY    22   5  48 S8        29.95S WCI  12
WOODRUFF       CLOUDY    22   5  48 S8        29.95S WCI  12
RHINELANDER    CLOUDY    19   0  43 SE14G23   29.97F WCI   6
EAGLE RIVER    CLOUDY    19  -1  41 S16G22    29.96S WCI   5
LAND O LAKES   CLOUDY    21  -1  38 S8G20     29.96S WCI  11
PHILLIPS       CLOUDY    17   5  58 S13G18    29.95S WCI   4
TOMAHAWK       CLOUDY    18   2  48 S5        29.98F WCI  11
MEDFORD        LGT SNOW  15   9  74 SE12G18   29.96F WCI   2
MERRILL        CLOUDY    20   5  52 SE14G22   30.01F WCI   6
$$

WIZ029-030-035-036-043>047-142300-
CENTRAL WISCONSIN

CITY           SKY/WX    TMP DP  RH WIND       PRES   REMARKS
WAUSAU         LGT SNOW  19   9  65 SE13      30.01F WCI   6
MOSINEE        LGT SNOW  18  12  79 SE10      30.02F WCI   6
MARSHFIELD     LGT SNOW  15   8  73 SE12      29.99S WCI   2
STEVENS POINT  CLOUDY    16  10  76 SE10      30.03F WCI   3
WAUPACA        LGT SNOW  21  14  74 SE8       30.07F WCI  12
WAUTOMA        CLOUDY    18  13  80 SE12      30.07R HAZE    WCI   6
WISC RAPIDS    LGT SNOW  16   8  71 SE10G21   30.04F WCI   4
CAMP DOUGLAS   LGT SNOW  18  16  93 SE13      30.01F FOG     WCI   4
$$

WIZ011>013-019>022-031-037>040-048>050-142300-
NORTHEAST WISCONSIN

CITY           SKY/WX    TMP DP  RH WIND       PRES   REMARKS
ANTIGO         FLURRIES  17   9  73 S20       30.01F WCI   0
SHAWANO        FLURRIES  22  13  68 SE14      30.10F WCI  10
OCONTO         CLOUDY    20  12  73 SE12G18   30.14S WCI   7
STURGEON BAY   CLOUDY    19   9  63 S16G23    30.15F WCI   5
GREEN BAY      FLURRIES  20  14  77 SE14      30.11F WCI   7
MANITOWOC      MIX PCPN  21  14  74 S21G29    30.13F WCI   5
APPLETON       LGT SNOW  19  14  79 E16G22    30.06F WCI   5
CLINTONVILLE   FLURRIES  21  14  73 S13       30.08F WCI   9
OSHKOSH        LGT SNOW  19  13  77 SE14      30.06F WCI   6
$$

WIZ032>034-041-042-053>061-142300-
SOUTHWEST WISCONSIN

CITY           SKY/WX    TMP DP  RH WIND       PRES   REMARKS
LA CROSSE      CLOUDY    19   9  65 SE10      30.00S WCI   7
SPARTA         FLURRIES  18  11  72 SE14      30.01F WCI   5
VIROQUA        CLOUDY    16  11  80 SE13      29.95F WCI   2
BOSCOBEL       LGT SNOW  19  12  74 SE8       30.02F WCI   9
PRAIRIE DU CHI LGT SNOW  19  12  72 SE10      29.99F WCI   8
PLATTEVILLE    CLOUDY    18  13  82 SE16      29.98F WCI   3
$$

WIZ056-057-062-063-064-067-068-142300-
SOUTH CENTRAL WISCONSIN

CITY           SKY/WX    TMP DP  RH WIND       PRES   REMARKS
REEDSBURG      LGT SNOW  16  10  79 SE6       30.03S WCI   7
BARABOO/DELLS  LGT SNOW  16  10  80 SE10      30.02S WCI   3
LONE ROCK      LGT SNOW  17  11  77 E10       30.04F WCI   5
MINERAL POINT  LGT SNOW  19  14  79 SE13      29.98S WCI   7
MADISON        LGT SNOW  15  11  83 SE13      30.04F VSB 1   WCI   1
MIDDLETON      CLOUDY    18  13  81 SE8       30.04S WCI   7
WATERTOWN      LGT SNOW  17  14  91 SE13      30.05F WCI   3
MONROE         FLURRIES  18  14  86 SE15      30.00S WCI   3
JANESVILLE     LGT SNOW  18  14  86 SE12      30.05F WCI   5
$$

WIZ051-052-058>065-066-070>072-142300-
SOUTHEAST WISCONSIN

CITY           SKY/WX    TMP DP  RH WIND       PRES   REMARKS
MILWAUKEE      LGT SNOW  20  17  88 SE14      30.11F VSB 3/4 WCI   7
WAUKESHA       LGT SNOW  16  12  86 SE9       30.10F VSB 1   WCI   4
MILWAUKEE/TIMM LGT SNOW  19  16  86 SE8       30.11F WCI   9
RACINE         SNOW      21  16  81 SE17G24   30.12F VSB 1/2 WCI   7
BURLINGTON     LGT SNOW  17  12  78 SE10      30.08F WCI   5
KENOSHA        LGT SNOW  20  14  77 SE15G22   30.09F WCI   6
FOND DU LAC    LGT SNOW  20  14  77 SE17      30.06F WCI   5
SHEBOYGAN      LGT SNOW  20  15  81 SE12      30.11F VSB 1   WCI   8
WEST BEND      LGT SNOW  19  16  86 SE12      30.07F WCI   7
JUNEAU         LGT SNOW  17  13  85 SE14      30.06F WCI   3
$$

LSZ147-162-142300-
LAKE SUPERIOR

STATION/POSITION TIME  TEMP    WIND        PRES    WAVE
                       AIR SEA DIR/SP/G            HT/PER
                 (UTC) (F)     (DEG/KT/KT) (MB)    (FT/S)
DEVILS ISLAND    2200   20     170/  5/  6 1016.0F
SAXON HARBOR     2100                      1015.2F
$$

LMZ867-665-643>646-142300-
LAKE MICHIGAN

STATION/POSITION TIME  TEMP    WIND        PRES    WAVE
                       AIR SEA DIR/SP/G            HT/PER
                 (UTC) (F)     (DEG/KT/KT) (MB)    (FT/S)
CHAMBERS ISLAND  2100   21     150/  6/ 15 1021.3F
KEWAUNEE LAKESHO 2200   21                 1020.0F
SHEBOYGAN LAKESH 2200   22     140/ 24/ 28 1021.2F
PORT WASHINGTON  2208   24     140/ 21/ 25 1019.6F
MILWAUKEE LAKESH 2110   21     140/ 18/ 21   N/A
KENOSHA   LAKESH 2200   22     150/ 22/ 26 1019.3F
$$

TC  - TEMPERATURE IN CELSIUS
VSB - VISIBILITY IN STATUTE MILES
WCI - WIND CHILL INDEX
HX  - HEAT INDEX





USA.gov is the U.S. government's official web portal to all federal, state and local government web resources and services.